TimeEST,TemperatureF,Dew PointF,Humidity,Sea Level PressureIn,VisibilityMPH,Wind Direction,Wind SpeedMPH,Gust SpeedMPH,PrecipitationIn,Events,Conditions,WindDirDegrees,DateUTC
12:48 AM,19.9,15.1,81,29.79,2.0,ENE,10.4,19.6,0.02,Snow,Light Snow,70,2012-12-10 05:48:00
12:55 AM,19.9,15.1,81,29.81,2.5,ENE,10.4,19.6,0.02,Snow,Light Snow,70,2012-12-10 05:55:00
1:19 AM,19.9,14.0,78,29.76,3.0,East,11.5,19.6,0.01,Snow,Light Snow,80,2012-12-10 06:19:00
1:35 AM,19.0,14.0,81,29.74,2.5,ENE,12.7,20.7,0.01,Snow,Light Snow,70,2012-12-10 06:35:00
1:52 AM,19.4,14.0,80,29.74,4.0,ENE,9.2,-,0.01,Snow,Light Snow,70,2012-12-10 06:52:00
1:55 AM,19.9,14.0,78,29.77,5.0,ENE,12.7,19.6,0.01,Snow,Light Snow,60,2012-12-10 06:55:00
2:55 AM,19.0,12.9,77,29.74,4.0,ENE,9.2,17.3,0.00,Snow,Light Snow,60,2012-12-10 07:55:00
3:55 AM,19.0,12.0,74,29.74,2.5,ENE,9.2,-,0.00,Snow,Light Snow,60,2012-12-10 08:55:00
4:03 AM,19.0,12.0,74,29.70,3.0,NE,9.2,-,0.00,Snow,Light Snow,50,2012-12-10 09:03:00
4:25 AM,19.0,12.0,74,29.68,2.5,NE,5.8,-,0.00,Snow,Light Snow,50,2012-12-10 09:25:00
4:43 AM,18.0,12.0,78,29.68,2.0,NE,6.9,-,0.01,Snow,Light Snow,50,2012-12-10 09:43:00
4:51 AM,17.6,12.2,79,29.68,1.8,NE,6.9,-,0.01,Snow,Light Snow,50,2012-12-10 09:51:00
4:55 AM,18.0,12.0,78,29.71,1.8,NE,5.8,-,0.01,Snow,Light Snow,50,2012-12-10 09:55:00
5:14 AM,18.0,12.0,78,29.67,2.0,NE,6.9,-,0.00,Snow,Light Snow,40,2012-12-10 10:14:00
5:26 AM,18.0,12.9,81,29.67,3.0,NNE,4.6,-,0.00,Snow,Light Snow,30,2012-12-10 10:26:00
5:55 AM,18.0,12.0,78,29.70,3.0,NE,6.9,-,0.01,Snow,Light Snow,50,2012-12-10 10:55:00
6:55 AM,17.1,10.0,74,29.69,5.0,NNE,6.9,-,0.00,Snow,Light Snow,20,2012-12-10 11:55:00
7:55 AM,16.0,9.0,74,29.69,6.0,NNE,6.9,-,0.00,Snow,Light Snow,30,2012-12-10 12:55:00
8:26 AM,16.0,9.0,74,29.67,4.0,North,4.6,-,0.00,Snow,Light Snow,10,2012-12-10 13:26:00
8:53 AM,15.8,8.6,73,29.68,10.0,NNE,6.9,-,0.00,,Mostly Cloudy,30,2012-12-10 13:53:00
8:55 AM,16.0,8.1,71,29.71,10.0,NNE,4.6,-,0.00,,Mostly Cloudy,20,2012-12-10 13:55:00
9:55 AM,17.1,8.1,68,29.73,10.0,North,8.1,-,0.00,,Overcast,10,2012-12-10 14:55:00
10:55 AM,17.1,7.0,65,29.74,10.0,North,8.1,-,0.00,,Overcast,360,2012-12-10 15:55:00
11:55 AM,19.0,9.0,65,29.73,10.0,NNW,5.8,-,0.00,,Overcast,340,2012-12-10 16:55:00
12:23 PM,19.9,9.0,62,29.69,10.0,NW,6.9,-,0.00,,Scattered Clouds,320,2012-12-10 17:23:00
12:55 PM,21.0,9.0,60,29.72,10.0,NNW,9.2,-,0.00,,Clear,330,2012-12-10 17:55:00
1:55 PM,21.9,10.0,60,29.73,10.0,NNW,10.4,-,N/A,,Partly Cloudy,330,2012-12-10 18:55:00
2:55 PM,23.0,10.0,58,29.75,10.0,NW,9.2,-,N/A,,Clear,320,2012-12-10 19:55:00
3:55 PM,23.0,10.9,60,29.77,10.0,NW,10.4,-,N/A,,Partly Cloudy,310,2012-12-10 20:55:00
4:55 PM,23.0,10.9,60,29.77,10.0,NNW,9.2,-,N/A,,Clear,330,2012-12-10 21:55:00
5:55 PM,21.0,10.0,63,29.81,10.0,North,8.1,-,N/A,,Clear,10,2012-12-10 22:55:00
6:55 PM,19.0,9.0,65,29.83,10.0,NNE,6.9,-,N/A,,Clear,20,2012-12-10 23:55:00
7:55 PM,17.1,8.1,68,29.86,10.0,North,6.9,-,N/A,,Clear,10,2012-12-11 00:55:00
8:55 PM,15.1,7.0,70,29.88,10.0,North,3.5,-,N/A,,Clear,10,2012-12-11 01:55:00
9:55 PM,12.0,5.0,73,29.89,10.0,Calm,Calm,-,0.00,,Clear,0,2012-12-11 02:55:00
10:55 PM,10.0,3.9,76,29.92,10.0,Calm,Calm,-,N/A,,Clear,0,2012-12-11 03:55:00
11:55 PM,10.0,5.0,80,29.93,10.0,ENE,3.5,-,0.00,,Clear,60,2012-12-11 04:55:00